Location: Pasadena, ca
(34.1243°N, 118.1037°W)
Time: 20:22:39
(UTC-08:00)

OTV 5 (USA 277) - Pass Details

Date: 16 November 2017
Orbit: 404 x 417 km, 43.0° (Epoch: 07 September)

Event Time Altitude Azimuth Distance (km) Brightness Sun altitude
Exits shadow 05:14:28 17° 341° (NNW) 1,125 ? -15.0°
Maximum altitude 05:15:42 20° 11° (N) 999 ? -14.8°
Drops below altitude 10° 05:18:13 10° 61° (ENE) 1,454 ? -14.3°
Sets 05:20:41 0° 79° (ENE) 2,312 ? -13.8°
